sat.trackr.live / text

‹ back to catalog

STARLINK-34892

NORAD 65350 · 2025-189AD

PAYLOAD ACTIVE UNKNOWN

§ Identity

Operator
Country
US
Launch date
2025-08-27
Launch site
AFETR
Launch vehicle
Mass (kg)
RCS (m²)

Purposes: comms

External: N2YO · Heavens-Above · Gunter

§ Orbital elements

Epoch: 2026-09-20T22:21:21.324384Z

Period
94.01 min
Inclination
53.1609°
Eccentricity
0.0000794
Mean motion
15.31725591 rev/d
Perigee alt
470.1 km
Apogee alt
471.2 km
Semi-major
6,848.8 km
B*
1.7273e-4
RAAN
18.1262°
Arg perigee
73.6325°
Mean anomaly
286.4764°
Rev number
6,097

§ Raw data

STARLINK-348921 65350U 25189AD  26263.93149681  .00005003  00000+0  17273-3 0  99942 65350  53.1609  18.1262 0000794  73.6325 286.4764 15.31725591 60979

JSON: /api/v1/satellites/65350 · /tle

For live sub-satellite position, see the globe view (requires WebGL).

§ Visibility from observer

Set your observer location to see the next 7 days of passes ≥ 10°. The values pass through the URL so the page stays shareable.

No JS? Fill the form by hand. The geolocation button needs JavaScript.